Flag for Germany Weather past 2 weeks in Cottbus, Brandenburg, Germany

Now
57 °F

Fog.


Feels Like: 57 °F
Forecast: 66 / 94 °F
Wind: 1 mph from Southeast

Location: Cottbus

Current Time: Aug 30, 2015 at 5:34:17 AM

Latest Report: Aug 30, 2015 at 5:00 AM


Visibility: 4 mi

Pressure: 30.14 "Hg

Humidity: 94%

Dew point: 55 °F

Location of CottbusLocation

Historic Weather in Cottbus — Graph

°F

Cottbus temperature yesterday

Maximum temperature yesterday: 79 °F (at 7:00 PM)
Minimum temperature yesterday: 52 °F (at 6:00 AM)
Average temperature yesterday: 65 °F

Past Weeks' High & Low Weather Summary

 TemperatureHumidityPressure
High88 °F (Aug 15, 3:00 PM)100% (Aug 16, 7:00 AM)30.31 "Hg (Aug 16, 7:00 AM)
Low47 °F (Aug 22, 6:00 AM)22% (Aug 22, 3:00 PM)29.68 "Hg (Aug 15, 6:00 AM)
Average68 °F67%29.99 "Hg
* Reported Aug 15 4:00 AM — Aug 30 4:00 AM, Cottbus, Weather by CustomWeather, © 2015

Note: Actual official high and low records may vary slightly from our data, if they occured in-between our weather recording intervals... More about our weather records

Advertising

Cottbus weather history for previous 24 hours

 ConditionsComfort  
Time TempWeatherWind HumidityBarometerVisibility
4:00 AM
Sun, Aug 30
57 °FPassing clouds.1 mph94%30.15 "Hg5 mi
3:00 AM58 °FOvercast.1 mph93%30.15 "Hg6 mi
2:00 AM58 °FOvercast.1 mph91%30.17 "Hg5 mi
1:00 AM59 °FFog.1 mph90%30.17 "Hg4 mi
11:00 PM
Sat, Aug 29
61 °FPassing clouds.1 mph83%30.19 "Hg13 mi
10:00 PM64 °FPassing clouds.1 mph77%30.19 "Hg8 mi
9:00 PM66 °FClear.1 mph70%30.18 "Hg16 mi
8:00 PM73 °FOvercast.1 mph50%30.17 "Hg25 mi
7:00 PM79 °FScattered clouds.1 mph40%30.18 "Hg43 mi
6:00 PM79 °FScattered clouds.2 mph38%30.19 "Hg40 mi
5:00 PM78 °FScattered clouds.2 mph39%30.21 "Hg31 mi
4:00 PM77 °FPassing clouds.2 mph40%30.22 "Hg25 mi
3:00 PM75 °FPassing clouds.2 mph45%30.24 "Hg43 mi
2:00 PM78 °FPartly sunny.1 mph45%30.26 "Hg22 mi
1:00 PM71 °FPassing clouds.1 mph56%30.27 "Hg34 mi
12:00 PM70 °FPartly sunny.1 mph61%30.27 "Hg22 mi
11:00 AM69 °FPartly sunny.1 mph67%30.28 "Hg12 mi
10:00 AM65 °FSunny.2 mph79%30.29 "Hg7 mi
9:00 AM61 °FSunny.1 mph89%30.27 "Hg6 mi
7:00 AM53 °FPassing clouds.1 mph99%30.25 "Hg4 mi
6:00 AM52 °FFog.1 mph99%30.24 "Hg4 mi
5:00 AM53 °FOvercast.1 mph99%30.22 "Hg7 mi
Weather by CustomWeather, © 2015

See weather overviewHow to use our weather pages